TVS3WP LKPR-LROP

Flight info

Callsign TVS3WP
Flight time 1h 29m
Altitude 35000
Route VOZ4B/30 VOZ DCT LIKSA DCT PEPIK DCT DEGET DCT EKNAB DCT LAMIT DCT TOSVI
Aircraft B738/M-SDE2E3FGHIRWXY/LB1

Departure

Time 2026-05-07 17:26
Airport Václav Havel Airport Prague (LKPR)

Arrival

Time 2026-05-07 18:55
Airport Bucharest Henri Coandă International Airport (LROP)
Time Latitude Longitude Altitude Speed Heading
2026-05-07 16:59 50.10753 14.25569 1166 ft 0 kts 304°
2026-05-07 17:11 50.10750 14.25575 1165 ft 2 kts 303°
2026-05-07 17:12 50.10742 14.25597 1164 ft 2 kts 297°
2026-05-07 17:12 50.10735 14.25621 1165 ft 2 kts 286°
2026-05-07 17:12 50.10733 14.25646 1166 ft 2 kts 264°
2026-05-07 17:12 50.10738 14.25670 1166 ft 2 kts 229°
2026-05-07 17:13 50.10747 14.25684 1166 ft 1 kts 213°
2026-05-07 17:19 50.10748 14.25685 1166 ft 0 kts 212°
2026-05-07 17:19 50.10741 14.25677 1166 ft 3 kts 214°
2026-05-07 17:19 50.10720 14.25655 1168 ft 4 kts 214°
2026-05-07 17:20 50.10699 14.25632 1169 ft 4 kts 214°
2026-05-07 17:20 50.10672 14.25618 1169 ft 6 kts 185°
2026-05-07 17:20 50.10631 14.25658 1174 ft 9 kts 124°
2026-05-07 17:20 50.10594 14.25758 1173 ft 14 kts 120°
2026-05-07 17:21 50.10531 14.25908 1172 ft 19 kts 124°
2026-05-07 17:21 50.10456 14.26067 1175 ft 18 kts 127°
2026-05-07 17:21 50.10379 14.26223 1175 ft 18 kts 127°
2026-05-07 17:21 50.10307 14.26374 1173 ft 17 kts 127°
2026-05-07 17:22 50.10231 14.26531 1172 ft 20 kts 127°
2026-05-07 17:22 50.10141 14.26717 1178 ft 22 kts 126°
2026-05-07 17:22 50.10051 14.26904 1190 ft 21 kts 127°
2026-05-07 17:22 50.09962 14.27088 1198 ft 21 kts 128°
2026-05-07 17:23 50.09871 14.27279 1201 ft 22 kts 127°
2026-05-07 17:23 50.09765 14.27447 1204 ft 21 kts 135°
2026-05-07 17:23 50.09661 14.27608 1207 ft 21 kts 135°
2026-05-07 17:23 50.09560 14.27762 1210 ft 20 kts 135°
2026-05-07 17:24 50.09463 14.27910 1214 ft 19 kts 135°
2026-05-07 17:24 50.09364 14.28063 1213 ft 21 kts 135°
2026-05-07 17:24 50.09267 14.28211 1213 ft 17 kts 135°
2026-05-07 17:24 50.09187 14.28285 1210 ft 14 kts 181°
2026-05-07 17:25 50.09104 14.28208 1210 ft 14 kts 221°
2026-05-07 17:25 50.09087 14.28079 1207 ft 13 kts 304°
2026-05-07 17:25 50.09114 14.28023 1208 ft 6 kts 307°
2026-05-07 17:25 50.09212 14.27820 1210 ft 59 kts 307°
2026-05-07 17:26 50.09620 14.26979 1205 ft 135 kts 307°
2026-05-07 17:26 50.10273 14.25616 1619 ft 169 kts 305°
2026-05-07 17:26 50.10998 14.24101 2607 ft 179 kts 307°
2026-05-07 17:26 50.11769 14.22530 3551 ft 183 kts 306°
2026-05-07 17:27 50.12530 14.20949 4373 ft 189 kts 304°
2026-05-07 17:27 50.13372 14.19187 4668 ft 212 kts 304°
2026-05-07 17:27 50.14280 14.17295 5023 ft 229 kts 304°
2026-05-07 17:27 50.15287 14.15201 5307 ft 254 kts 304°
2026-05-07 17:28 50.16386 14.12920 5909 ft 268 kts 304°
2026-05-07 17:28 50.17466 14.10666 6691 ft 272 kts 301°
2026-05-07 17:28 50.18146 14.07951 7494 ft 270 kts 273°
2026-05-07 17:28 50.17898 14.05080 8303 ft 269 kts 246°
2026-05-07 17:29 50.16861 14.02657 9112 ft 271 kts 223°
2026-05-07 17:29 50.15386 14.00807 9971 ft 273 kts 217°
2026-05-07 17:29 50.13814 13.99128 10494 ft 287 kts 207°
2026-05-07 17:29 50.11795 13.98315 10682 ft 314 kts 183°
2026-05-07 17:30 50.09557 13.98902 10844 ft 342 kts 160°
2026-05-07 17:30 50.07480 14.00929 11156 ft 364 kts 141°
2026-05-07 17:30 50.05629 14.03707 11751 ft 372 kts 137°
2026-05-07 17:30 50.03841 14.06649 12483 ft 376 kts 135°
2026-05-07 17:31 50.02055 14.09653 13232 ft 379 kts 135°
2026-05-07 17:31 50.00275 14.12631 13905 ft 383 kts 136°
2026-05-07 17:31 49.98438 14.15669 14533 ft 386 kts 136°
2026-05-07 17:31 49.96570 14.18722 15195 ft 389 kts 136°
2026-05-07 17:32 49.94693 14.21764 15810 ft 392 kts 137°
2026-05-07 17:32 49.92794 14.24823 15977 ft 392 kts 137°
2026-05-07 17:32 49.90892 14.27875 15984 ft 394 kts 137°
2026-05-07 17:32 49.89624 14.29905 15988 ft 394 kts 137°
2026-05-07 17:33 49.87090 14.33955 15997 ft 394 kts 137°
2026-05-07 17:33 49.85181 14.37003 16002 ft 394 kts 137°
2026-05-07 17:33 49.83910 14.39031 15991 ft 395 kts 137°
2026-05-07 17:33 49.82165 14.42336 15991 ft 401 kts 126°
2026-05-07 17:34 49.80729 14.46112 16365 ft 408 kts 123°
2026-05-07 17:34 49.79323 14.49953 17058 ft 409 kts 123°
2026-05-07 17:34 49.77920 14.53799 17741 ft 411 kts 123°
2026-05-07 17:34 49.76499 14.57671 18314 ft 415 kts 123°
2026-05-07 17:35 49.75078 14.61512 18802 ft 419 kts 123°
2026-05-07 17:35 49.73595 14.65493 19324 ft 422 kts 123°
2026-05-07 17:35 49.72139 14.69385 19845 ft 424 kts 124°
2026-05-07 17:35 49.70651 14.73345 20346 ft 427 kts 124°
2026-05-07 17:36 49.69147 14.77337 20850 ft 430 kts 124°
2026-05-07 17:36 49.67632 14.81350 21335 ft 433 kts 124°
2026-05-07 17:36 49.66117 14.85356 21805 ft 436 kts 124°
2026-05-07 17:36 49.64581 14.89413 22282 ft 439 kts 124°
2026-05-07 17:37 49.63031 14.93501 22755 ft 442 kts 124°
2026-05-07 17:37 49.61470 14.97612 23209 ft 445 kts 124°
2026-05-07 17:37 49.59899 15.01742 23630 ft 447 kts 124°
2026-05-07 17:37 49.58314 15.05902 23993 ft 450 kts 124°
2026-05-07 17:38 49.56746 15.10011 24371 ft 452 kts 124°
2026-05-07 17:38 49.55144 15.14204 24737 ft 454 kts 125°
2026-05-07 17:38 49.53536 15.18405 25096 ft 456 kts 125°
2026-05-07 17:38 49.51918 15.22628 25444 ft 458 kts 125°
2026-05-07 17:39 49.50295 15.26854 25793 ft 460 kts 125°
2026-05-07 17:39 49.48658 15.31109 26140 ft 462 kts 125°
2026-05-07 17:39 49.47019 15.35365 26479 ft 463 kts 125°
2026-05-07 17:39 49.45368 15.39643 26800 ft 465 kts 125°
2026-05-07 17:40 49.43731 15.43879 27103 ft 467 kts 126°
2026-05-07 17:40 49.42064 15.48185 27431 ft 469 kts 126°
2026-05-07 17:40 49.40383 15.52518 27749 ft 470 kts 126°
2026-05-07 17:40 49.38705 15.56839 28052 ft 472 kts 126°
2026-05-07 17:41 49.37017 15.61180 28398 ft 472 kts 126°
2026-05-07 17:41 49.35354 15.65449 28849 ft 470 kts 126°
2026-05-07 17:41 49.33660 15.69794 29354 ft 467 kts 126°
2026-05-07 17:41 49.32013 15.74012 29778 ft 466 kts 126°
2026-05-07 17:42 49.30344 15.78275 30137 ft 466 kts 126°
2026-05-07 17:42 49.28675 15.82528 30452 ft 465 kts 126°
2026-05-07 17:42 49.27002 15.86785 30756 ft 466 kts 126°
2026-05-07 17:42 49.25326 15.91044 31032 ft 466 kts 126°
2026-05-07 17:43 49.23650 15.95293 31328 ft 466 kts 126°
2026-05-07 17:43 49.21973 15.99543 31648 ft 465 kts 126°
2026-05-07 17:43 49.20297 16.03783 31949 ft 465 kts 126°
2026-05-07 17:43 49.18618 16.08022 32212 ft 466 kts 126°
2026-05-07 17:44 49.16957 16.12209 32493 ft 466 kts 126°
2026-05-07 17:44 49.15275 16.16443 32798 ft 465 kts 126°
2026-05-07 17:44 49.13590 16.20680 33081 ft 465 kts 126°
2026-05-07 17:44 49.11904 16.24908 33318 ft 466 kts 126°
2026-05-07 17:45 49.10214 16.29140 33556 ft 466 kts 126°
2026-05-07 17:45 49.08524 16.33368 33835 ft 466 kts 126°
2026-05-07 17:45 49.06831 16.37596 34077 ft 466 kts 126°
2026-05-07 17:45 49.05160 16.41762 34266 ft 467 kts 126°
2026-05-07 17:46 49.03463 16.45986 34481 ft 467 kts 126°
2026-05-07 17:46 49.01764 16.50208 34717 ft 466 kts 126°
2026-05-07 17:46 49.00067 16.54421 34925 ft 466 kts 126°
2026-05-07 17:46 48.98360 16.58648 34943 ft 468 kts 126°
2026-05-07 17:47 48.94961 16.67050 34964 ft 467 kts 126°
2026-05-07 17:47 48.91541 16.75478 34950 ft 465 kts 126°
2026-05-07 17:48 48.88156 16.83793 34946 ft 464 kts 126°
2026-05-07 17:48 48.84756 16.92118 34951 ft 463 kts 126°
2026-05-07 17:49 48.81350 17.00438 34944 ft 462 kts 127°
2026-05-07 17:49 48.77932 17.08677 34945 ft 460 kts 130°
2026-05-07 17:50 48.74124 17.16411 34961 ft 457 kts 133°
2026-05-07 17:50 48.70214 17.23951 34951 ft 458 kts 133°
2026-05-07 17:51 48.66265 17.31590 34959 ft 459 kts 133°
2026-05-07 17:51 48.62346 17.39231 34961 ft 460 kts 133°
2026-05-07 17:52 48.58446 17.46847 34964 ft 460 kts 133°
2026-05-07 17:52 48.54524 17.54492 34961 ft 460 kts 133°
2026-05-07 17:53 48.50604 17.62109 34964 ft 457 kts 133°
2026-05-07 17:53 48.46731 17.69613 34952 ft 455 kts 134°
2026-05-07 17:54 48.42840 17.77129 34956 ft 452 kts 134°
2026-05-07 17:54 48.39224 17.84093 34966 ft 450 kts 134°
2026-05-07 17:55 48.35365 17.91505 34961 ft 448 kts 134°
2026-05-07 17:55 48.31518 17.98872 34973 ft 447 kts 134°
2026-05-07 17:56 48.27699 18.06167 34977 ft 447 kts 134°
2026-05-07 17:56 48.23845 18.13509 34981 ft 447 kts 134°
2026-05-07 17:57 48.20639 18.19601 34980 ft 448 kts 134°
2026-05-07 17:57 48.16113 18.28179 34979 ft 449 kts 134°
2026-05-07 17:58 48.12253 18.35473 34983 ft 449 kts 134°
2026-05-07 17:58 48.08362 18.42805 34986 ft 450 kts 135°
2026-05-07 17:59 48.04446 18.50166 34981 ft 451 kts 135°
2026-05-07 17:59 48.00535 18.57499 34990 ft 451 kts 135°
2026-05-07 18:00 47.96629 18.64802 34990 ft 451 kts 135°
2026-05-07 18:00 47.92725 18.72080 34993 ft 452 kts 135°
2026-05-07 18:01 47.88787 18.79401 34988 ft 452 kts 135°
2026-05-07 18:01 47.84827 18.86744 34993 ft 454 kts 135°
2026-05-07 18:02 47.78894 18.97709 34996 ft 455 kts 135°
2026-05-07 18:03 47.74900 19.05063 34991 ft 456 kts 135°
2026-05-07 18:03 47.70933 19.12351 35007 ft 457 kts 135°
2026-05-07 18:04 47.66915 19.19712 34996 ft 458 kts 135°
2026-05-07 18:04 47.62891 19.27063 34997 ft 459 kts 135°
2026-05-07 18:05 47.58850 19.34429 34994 ft 460 kts 135°
2026-05-07 18:05 47.54823 19.41745 34993 ft 461 kts 135°
2026-05-07 18:06 47.50750 19.49127 34991 ft 461 kts 135°
2026-05-07 18:06 47.46706 19.56436 34992 ft 461 kts 135°
2026-05-07 18:07 47.42634 19.63776 34986 ft 460 kts 135°
2026-05-07 18:07 47.38570 19.71084 34985 ft 459 kts 135°
2026-05-07 18:08 47.34533 19.78322 34990 ft 458 kts 135°
2026-05-07 18:08 47.30477 19.85574 34984 ft 457 kts 135°
2026-05-07 18:09 47.26446 19.92762 34989 ft 456 kts 135°
2026-05-07 18:09 47.22390 19.99976 34987 ft 456 kts 135°
2026-05-07 18:10 47.18333 20.07171 34993 ft 456 kts 135°
2026-05-07 18:10 47.14283 20.14336 34993 ft 457 kts 135°
2026-05-07 18:11 47.10214 20.21515 34996 ft 458 kts 135°
2026-05-07 18:11 47.06122 20.28718 34993 ft 459 kts 135°
2026-05-07 18:12 47.02031 20.35900 34995 ft 459 kts 135°
2026-05-07 18:12 46.97939 20.43064 34997 ft 460 kts 135°
2026-05-07 18:13 46.93818 20.50260 34994 ft 460 kts 135°
2026-05-07 18:13 46.89723 20.57393 34997 ft 460 kts 135°
2026-05-07 18:14 46.85605 20.64546 34999 ft 459 kts 135°
2026-05-07 18:14 46.81483 20.71688 35002 ft 459 kts 135°
2026-05-07 18:15 46.77389 20.78763 35003 ft 458 kts 135°
2026-05-07 18:15 46.73270 20.85862 35000 ft 458 kts 135°
2026-05-07 18:16 46.69153 20.92940 34998 ft 457 kts 135°
2026-05-07 18:16 46.65032 21.00006 35001 ft 457 kts 135°
2026-05-07 18:17 46.60930 21.07022 35005 ft 457 kts 135°
2026-05-07 18:17 46.56805 21.14061 35005 ft 457 kts 134°
2026-05-07 18:18 46.52670 21.21102 35005 ft 458 kts 135°
2026-05-07 18:18 46.49224 21.26951 35014 ft 458 kts 135°
2026-05-07 18:19 46.45026 21.33910 35022 ft 458 kts 135°
2026-05-07 18:19 46.40784 21.40832 35013 ft 459 kts 135°
2026-05-07 18:20 46.36549 21.47740 35015 ft 459 kts 135°
2026-05-07 18:20 46.32331 21.54622 35013 ft 459 kts 135°
2026-05-07 18:21 46.28086 21.61537 35016 ft 459 kts 135°
2026-05-07 18:21 46.23834 21.68448 35019 ft 460 kts 135°
2026-05-07 18:22 46.19594 21.75321 35017 ft 460 kts 135°
2026-05-07 18:22 46.15327 21.82218 35019 ft 460 kts 135°
2026-05-07 18:23 46.11054 21.89110 35016 ft 460 kts 135°
2026-05-07 18:23 46.06805 21.95945 35010 ft 460 kts 135°
2026-05-07 18:24 46.02525 22.02813 35021 ft 459 kts 135°
2026-05-07 18:24 45.98258 22.09641 35017 ft 459 kts 135°
2026-05-07 18:25 45.93980 22.16472 35024 ft 458 kts 136°
2026-05-07 18:25 45.89732 22.23238 35025 ft 458 kts 136°
2026-05-07 18:26 45.85451 22.30040 35028 ft 458 kts 136°
2026-05-07 18:26 45.81175 22.36817 35028 ft 458 kts 136°
2026-05-07 18:27 45.76912 22.43560 35024 ft 458 kts 136°
2026-05-07 18:27 45.72628 22.50316 35034 ft 458 kts 136°
2026-05-07 18:28 45.68183 22.56826 35031 ft 456 kts 140°
2026-05-07 18:28 45.63663 22.63112 35042 ft 456 kts 140°
2026-05-07 18:29 45.59127 22.69450 35031 ft 455 kts 140°
2026-05-07 18:29 45.54624 22.75792 35035 ft 454 kts 140°
2026-05-07 18:30 45.50152 22.82091 35055 ft 454 kts 140°
2026-05-07 18:30 45.45651 22.88419 35058 ft 454 kts 140°
2026-05-07 18:31 45.41131 22.94758 35042 ft 455 kts 140°
2026-05-07 18:31 45.36637 23.01044 35056 ft 456 kts 140°
2026-05-07 18:32 45.32116 23.07353 35078 ft 455 kts 140°
2026-05-07 18:32 45.27584 23.13663 35079 ft 454 kts 140°
2026-05-07 18:33 45.23086 23.19910 35060 ft 454 kts 140°
2026-05-07 18:33 45.18561 23.26182 35045 ft 455 kts 140°
2026-05-07 18:34 45.14012 23.32473 35065 ft 456 kts 139°
2026-05-07 18:34 45.10246 23.39813 35068 ft 468 kts 120°
2026-05-07 18:35 45.08131 23.48542 35070 ft 476 kts 108°
2026-05-07 18:35 45.06525 23.57493 35059 ft 477 kts 107°
2026-05-07 18:36 45.04869 23.66628 34960 ft 480 kts 108°
2026-05-07 18:36 45.04010 23.71232 34355 ft 485 kts 108°
2026-05-07 18:36 45.03143 23.75823 33692 ft 482 kts 108°
2026-05-07 18:36 45.02269 23.80405 32904 ft 482 kts 108°
2026-05-07 18:37 45.01393 23.84969 32165 ft 481 kts 108°
2026-05-07 18:37 45.00518 23.89521 31423 ft 480 kts 108°
2026-05-07 18:37 44.99640 23.94075 30658 ft 480 kts 107°
2026-05-07 18:37 44.98759 23.98634 29825 ft 480 kts 107°
2026-05-07 18:38 44.97889 24.03133 28920 ft 480 kts 107°
2026-05-07 18:38 44.97007 24.07689 28218 ft 476 kts 107°
2026-05-07 18:38 44.96139 24.12165 27577 ft 470 kts 107°
2026-05-07 18:38 44.95275 24.16609 26985 ft 464 kts 107°
2026-05-07 18:39 44.94433 24.20931 26376 ft 460 kts 107°
2026-05-07 18:39 44.93587 24.25260 25788 ft 456 kts 107°
2026-05-07 18:39 44.92744 24.29560 25193 ft 451 kts 107°
2026-05-07 18:39 44.91906 24.33827 24611 ft 447 kts 107°
2026-05-07 18:40 44.91074 24.38054 24029 ft 444 kts 107°
2026-05-07 18:40 44.90259 24.42187 23394 ft 441 kts 107°
2026-05-07 18:40 44.89437 24.46344 22733 ft 438 kts 107°
2026-05-07 18:40 44.88621 24.50464 22115 ft 433 kts 107°
2026-05-07 18:41 44.87812 24.54545 21540 ft 429 kts 107°
2026-05-07 18:41 44.87011 24.58573 20959 ft 425 kts 107°
2026-05-07 18:41 44.86214 24.62574 20384 ft 421 kts 107°
2026-05-07 18:41 44.85432 24.66489 19829 ft 418 kts 107°
2026-05-07 18:42 44.84646 24.70422 19269 ft 415 kts 107°
2026-05-07 18:42 44.83858 24.74353 18708 ft 412 kts 108°
2026-05-07 18:42 44.83085 24.78199 18103 ft 411 kts 108°
2026-05-07 18:42 44.82306 24.82069 17486 ft 408 kts 108°
2026-05-07 18:43 44.81533 24.85907 16908 ft 404 kts 108°
2026-05-07 18:43 44.80768 24.89694 16345 ft 400 kts 108°
2026-05-07 18:43 44.80008 24.93449 15797 ft 397 kts 108°
2026-05-07 18:43 44.79252 24.97179 15261 ft 393 kts 108°
2026-05-07 18:44 44.78513 25.00817 14739 ft 390 kts 108°
2026-05-07 18:44 44.77778 25.04434 14584 ft 377 kts 108°
2026-05-07 18:44 44.77069 25.07917 14405 ft 365 kts 109°
2026-05-07 18:44 44.76243 25.11214 14320 ft 350 kts 114°
2026-05-07 18:45 44.75324 25.14321 14242 ft 337 kts 116°
2026-05-07 18:45 44.74405 25.17293 14159 ft 325 kts 116°
2026-05-07 18:45 44.73527 25.20121 14088 ft 314 kts 116°
2026-05-07 18:45 44.72673 25.22894 13975 ft 305 kts 116°
2026-05-07 18:46 44.71848 25.25597 13774 ft 296 kts 116°
2026-05-07 18:46 44.71044 25.28245 13344 ft 295 kts 116°
2026-05-07 18:46 44.70242 25.30895 12911 ft 294 kts 116°
2026-05-07 18:46 44.69442 25.33544 12470 ft 294 kts 116°
2026-05-07 18:47 44.68640 25.36205 11954 ft 296 kts 116°
2026-05-07 18:47 44.67834 25.38879 11467 ft 298 kts 116°
2026-05-07 18:47 44.67022 25.41573 10899 ft 300 kts 116°
2026-05-07 18:47 44.66199 25.44302 10246 ft 306 kts 116°
2026-05-07 18:48 44.65376 25.47031 9731 ft 306 kts 116°
2026-05-07 18:48 44.64546 25.49783 9174 ft 305 kts 116°
2026-05-07 18:48 44.63708 25.52557 8273 ft 316 kts 115°
2026-05-07 18:48 44.62839 25.55430 7633 ft 318 kts 115°
2026-05-07 18:49 44.61991 25.58236 7135 ft 312 kts 115°
2026-05-07 18:49 44.61147 25.61024 6649 ft 307 kts 115°
2026-05-07 18:49 44.60316 25.63768 6150 ft 303 kts 115°
2026-05-07 18:49 44.59495 25.66473 5634 ft 298 kts 115°
2026-05-07 18:50 44.58686 25.69135 5118 ft 295 kts 115°
2026-05-07 18:50 44.57882 25.71777 4571 ft 293 kts 114°
2026-05-07 18:50 44.57103 25.74340 4283 ft 283 kts 114°
2026-05-07 18:50 44.56345 25.76829 4069 ft 270 kts 114°
2026-05-07 18:51 44.55622 25.79198 3791 ft 262 kts 114°
2026-05-07 18:51 44.54915 25.81510 3504 ft 255 kts 114°
2026-05-07 18:51 44.54475 25.83864 3234 ft 248 kts 87°
2026-05-07 18:51 44.54804 25.86148 3002 ft 232 kts 78°
2026-05-07 18:52 44.55045 25.88327 2729 ft 218 kts 85°
2026-05-07 18:52 44.55188 25.90365 2484 ft 209 kts 85°
2026-05-07 18:52 44.55327 25.92356 2257 ft 200 kts 85°
2026-05-07 18:52 44.55466 25.94246 2018 ft 190 kts 85°
2026-05-07 18:53 44.55600 25.96054 1799 ft 181 kts 85°
2026-05-07 18:53 44.55728 25.97777 1595 ft 173 kts 85°
2026-05-07 18:53 44.55849 25.99417 1391 ft 165 kts 85°
2026-05-07 18:53 44.55962 26.00937 1278 ft 151 kts 85°
2026-05-07 18:54 44.56065 26.02356 1090 ft 145 kts 85°
2026-05-07 18:54 44.56168 26.03733 856 ft 138 kts 85°
2026-05-07 18:54 44.56266 26.05060 686 ft 137 kts 84°
2026-05-07 18:54 44.56366 26.06385 524 ft 136 kts 85°
2026-05-07 18:55 44.56467 26.07689 376 ft 133 kts 84°
2026-05-07 18:55 44.56558 26.08919 322 ft 110 kts 83°
2026-05-07 18:55 44.56620 26.09754 321 ft 59 kts 84°
2026-05-07 18:55 44.56657 26.10236 322 ft 44 kts 83°
2026-05-07 18:56 44.56685 26.10600 322 ft 32 kts 84°
2026-05-07 18:56 44.56733 26.10766 322 ft 12 kts 20°
2026-05-07 18:56 44.56814 26.10757 320 ft 10 kts 354°
2026-05-07 18:56 44.56866 26.10750 321 ft 4 kts 354°
2026-05-07 18:57 44.56891 26.10746 321 ft 4 kts 354°
2026-05-07 18:57 44.56915 26.10742 320 ft 4 kts 354°
2026-05-07 18:57 44.56949 26.10737 320 ft 7 kts 354°
2026-05-07 18:57 44.57001 26.10703 321 ft 10 kts 318°
2026-05-07 18:58 44.57048 26.10603 321 ft 14 kts 301°
2026-05-07 18:58 44.57065 26.10489 321 ft 13 kts 266°
2026-05-07 18:58 44.57055 26.10351 321 ft 15 kts 264°
2026-05-07 18:58 44.57046 26.10223 321 ft 16 kts 263°
2026-05-07 18:59 44.57033 26.10063 321 ft 17 kts 264°
2026-05-07 18:59 44.57021 26.09906 321 ft 16 kts 264°
2026-05-07 18:59 44.57009 26.09756 321 ft 15 kts 263°
2026-05-07 18:59 44.56998 26.09617 321 ft 13 kts 264°
2026-05-07 19:00 44.56988 26.09489 321 ft 13 kts 264°
2026-05-07 19:00 44.56978 26.09360 321 ft 14 kts 264°
2026-05-07 19:00 44.56968 26.09225 321 ft 14 kts 264°
2026-05-07 19:00 44.56959 26.09095 321 ft 13 kts 264°
2026-05-07 19:01 44.56949 26.08970 321 ft 13 kts 264°
2026-05-07 19:01 44.56939 26.08835 321 ft 15 kts 264°
2026-05-07 19:01 44.56928 26.08700 321 ft 13 kts 264°
2026-05-07 19:01 44.56922 26.08620 321 ft 5 kts 264°
2026-05-07 19:02 44.56912 26.08558 322 ft 8 kts 248°
2026-05-07 19:02 44.56895 26.08467 322 ft 11 kts 269°
2026-05-07 19:02 44.56935 26.08385 322 ft 4 kts 310°
2026-05-07 19:02 44.56947 26.08357 322 ft 6 kts 297°
2026-05-07 19:03 44.56949 26.08296 322 ft 3 kts 263°
2026-05-07 19:03 44.56946 26.08257 322 ft 5 kts 263°
2026-05-07 19:03 44.56952 26.08217 320 ft 4 kts 317°
2026-05-07 19:03 44.56970 26.08206 322 ft 5 kts 350°
2026-05-07 19:04 44.57016 26.08199 320 ft 3 kts 354°
2026-05-07 19:04 44.57023 26.08198 322 ft 1 kts 354°